Location: Asheville, NC
(35.6000°N, 82.5500°W)
Time: 14:05:51
(UTC-05:00)

Vanguard 2 Rocket - Visible Passes

Search period start: 11 December 2017 00:00
Search period end: 21 December 2017 00:00
Orbit: 555 x 3326 km, 32.9° (Epoch: 10 December)

Date Brightness Start Highest point End Pass type
(mag) Time Alt. Az. Time Alt. Az. Time Alt. Az.
11 Dec 10.7 01:33:40 13° ESE 01:33:40 13° ESE 01:34:29 10° ESE visible
11 Dec 9.9 03:39:29 30° S 03:39:29 30° S 03:46:38 10° SSE visible
11 Dec 9.2 19:26:49 10° SW 19:38:44 57° SSE 19:45:38 40° E visible
11 Dec 9.4 21:40:07 10° WSW 21:51:26 61° WSW 21:51:26 61° WSW visible
11 Dec 10.8 23:55:56 10° W 00:37:38 - ESE 23:57:14 14° W visible
12 Dec 10.2 02:43:27 24° SSE 02:43:27 24° SSE 02:47:55 10° SE visible
12 Dec 10.2 04:49:16 17° SW 04:49:16 17° SW 04:55:34 10° SSW visible
12 Dec 9.3 18:28:15 10° SSW 18:38:20 44° SE 18:49:27 20° E visible
12 Dec 9.1 20:40:16 10° WSW 20:54:07 76° SSE 20:55:15 74° SE visible
12 Dec 10.2 22:55:05 10° W 23:01:03 31° W 23:01:03 31° W visible
13 Dec 10.7 01:47:24 13° SE 01:47:24 13° SE 01:48:25 10° SE visible
13 Dec 10.2 03:53:12 22° SSW 03:53:12 22° SSW 03:59:04 10° S visible
13 Dec 9.5 17:30:23 10° SSW 17:38:35 30° SE 17:51:04 10° E visible
13 Dec 9.0 19:40:56 10° WSW 19:52:51 67° SSE 19:59:02 47° E visible
13 Dec 9.5 21:54:43 10° W 22:04:50 55° WSW 22:04:50 55° WSW visible
14 Dec 10.9 00:10:34 10° W 00:51:18 - ESE 00:10:39 10° W visible
14 Dec 10.4 02:57:07 20° S 02:57:07 20° S 03:00:59 10° SSE visible
14 Dec 9.0 18:42:04 10° SW 18:52:13 55° SSE 19:02:49 25° E visible
14 Dec 9.0 20:54:48 10° WSW 21:08:36 81° S 21:08:36 81° S visible
14 Dec 10.3 23:09:45 10° W 23:14:25 26° W 23:14:25 26° W visible
15 Dec 10.7 02:00:59 13° SSE 02:00:59 13° SSE 02:01:55 10° SE visible
15 Dec 10.5 04:06:48 14° SSW 04:06:48 14° SSW 04:10:05 10° SSW visible
15 Dec 9.1 17:43:44 10° SSW 17:52:13 41° SE 18:06:13 10° E visible
15 Dec 8.9 19:55:20 10° WSW 20:07:12 75° SSE 20:12:23 54° E visible
15 Dec 9.7 22:09:22 10° W 22:18:11 48° W 22:18:11 48° W visible
16 Dec11.001:04:48SE01:04:48SE00:23:59Wvisible
16 Dec 10.6 03:10:37 15° S 03:10:37 15° S 03:13:13 10° S visible
16 Dec 8.8 18:56:15 10° WSW 19:06:22 66° SSE 19:16:08 29° E visible
16 Dec 9.1 21:09:26 10° W 21:21:56 78° SW 21:21:56 78° SW visible
16 Dec 10.5 23:24:24 10° W 23:27:44 21° W 23:27:44 21° W visible
17 Dec 10.8 02:14:23 11° SSE 02:14:23 11° SSE 02:14:49 10° SSE visible
17 Dec 8.8 17:57:37 10° SW 18:06:09 53° SSE 18:19:54 12° E visible
17 Dec 8.9 20:09:53 10° WSW 20:21:44 80° S 20:25:42 61° ESE visible
17 Dec 9.8 22:24:02 10° W 22:31:30 41° W 22:31:30 41° W visible
18 Dec11.101:18:05SE01:18:05SE00:37:19WNWvisible
18 Dec 10.8 03:23:53 10° SSW 03:23:53 10° SSW 03:24:01 10° SSW visible
18 Dec 8.7 19:10:41 10° WSW 19:20:46 75° SSE 19:29:28 34° E visible
18 Dec 9.1 21:24:05 10° W 21:35:17 69° WSW 21:35:17 69° WSW visible
18 Dec 10.6 23:39:07 10° W 23:41:05 16° W 23:41:05 16° W visible
19 Dec 8.6 18:11:50 10° WSW 18:20:22 65° SSE 18:33:16 15° E visible
19 Dec 8.9 20:24:31 10° W 20:36:20 81° S 20:39:04 68° ESE visible
19 Dec 10.0 22:38:42 10° W 22:44:53 34° W 22:44:53 34° W visible
20 Dec 8.7 19:25:16 10° W 19:35:19 79° S 19:42:53 39° E visible
20 Dec 9.3 21:38:45 10° W 21:48:42 60° WSW 21:48:42 60° WSW visible
